Regional Weather Roundup
Issued by NWS

Home | Current Version | Previous Version | Text Only | Print | Product List | Glossary Off
Versions: 1 2 3 4 5 6 7 8 9 10 11 12 13 14 15 16 17 18 19 20 21 22 23 24 25 26 27 28 29 30 31 32 33 34 35 36 37 38 39 40 41 42 43 44 45 46 47 48 49 50

408
ASUS43 KIND 190809
RWRIN

WEATHER ROUNDUP FOR INDIANA
NATIONAL WEATHER SERVICE INDIANAPOLIS IN
400 AM EDT SAT AUG 19 2017

NOTE: "FAIR" INDICATES FEW OR NO CLOUDS BELOW 12,000 FEET WITH NO
SIGNIFICANT WEATHER AND/OR OBSTRUCTIONS TO VISIBILITY.

* - STATION DOES NOT REPORT WEATHER SUCH AS PRECIPITATION OR FOG.

+ - STATION NOT QUALITY CONTROLLED BY THE NATIONAL WEATHER SERVICE.
    USE DATA WITH CAUTION...ESPECIALLY DEWPOINT AND RELATIVE
    HUMIDITY OBSERVATIONS.

INZ001>003-010>013-019-020-190900-
NORTHWEST INDIANA

CITY           SKY/WX    TMP DP  RH WIND       PRES   REMARKS
GARY /AIRPORT/ CLOUDY    72  60  66 N7        29.90S
KNOX *+        CLOUDY    64  63  94 NW5       29.89F
LA PORTE +     CLOUDY    66  64  91 CALM      29.91S
MICHIGAN CITY+ CLOUDY    68  61  77 CALM      29.91R
MONTICELLO +   PTCLDY    65  64  95 W3        29.89R
RENSSELAER +   MOCLDY    64  61  88 N3        29.89S
VALPARAISO     CLOUDY    69  65  86 CALM      29.90F

$$

LMZ046-743>745-190900-
SOUTHERN LAKE MICHIGAN

STATION/POSITION TIME  TEMP    WIND        PRES    WAVE
                       AIR SEA DIR/SP/G            HT
                 (UTC) (F)     (DEG/KT/KT) (MB)    (FT)
BURNS HARBOR     0740   72     340/ 10/ 12 1013.2R
MICHIGAN CITY    0740   71     330/ 12/ 13   N/A
5NW MICH CITY    0800   72 74  340/ 10/ 14   N/A     3

$$

INZ004-005-014>016-021>024-190900-
NORTH CENTRAL INDIANA

CITY           SKY/WX    TMP DP  RH WIND       PRES   REMARKS
GOSHEN         RAIN      65  62  90 SW6       29.91R FOG
LOGANSPORT +   CLOUDY    66  63  88 NW3       29.90R
PERU/GRISSOM   CLOUDY    67  65  96 SW6       29.88S
ROCHESTER +    CLOUDY    68  66  94 CALM      29.90S
SOUTH BEND     CLOUDY    65  65 100 W8        29.90R
WARSAW +       LGT RAIN  63  63 100 CALM      29.90R

$$

INZ006>009-017-018-025>027-190900-
NORTHEAST INDIANA

CITY           SKY/WX    TMP DP  RH WIND       PRES   REMARKS
AUBURN +       MOCLDY    63  61  94 CALM      29.89S
FORT WAYNE     MOCLDY    67  63  87 CALM      29.89F
HUNTINGTON +   MOCLDY    66  65  96 S3        29.89S
KENDALLVILLE + RAIN      64  64 100 SW6       29.91R

$$

INZ028-029-035-036-043>045-051>053-190900-
WEST CENTRAL INDIANA

CITY           SKY/WX    TMP DP  RH WIND       PRES   REMARKS
GREENCASTLE +  CLOUDY    64  63  94 CALM      29.92R
LAFAYETTE      CLOUDY    66  61  84 CALM      29.89R
TERRE HAUTE    PTCLDY    65  62  90 CALM      29.92R

$$

INZ030>032-037>040-046>048-054>057-064-065-190900-
CENTRAL INDIANA

CITY           SKY/WX    TMP DP  RH WIND       PRES   REMARKS
CP ATTERBURY + CLOUDY    66  63  88 CALM      29.92F
FRANKFORT +    CLOUDY    68  65  90 NW3       29.93R
GREENWOOD *+   CLOUDY    68  63  83 S3        29.92F
INDIANAPOLIS   MOCLDY    70  63  78 VRB3      29.89F
-EAGLE CREEK   CLOUDY    70  63  78 S3        29.89F
KOKOMO +       CLOUDY    68  64  87 SW8       29.91R
MT COMFORT *+  CLOUDY    66  63  88 S5        29.91F
SHELBYVILLE    PTCLDY    68  63  84 CALM      29.91F
ZIONSVILLE +   CLOUDY    66  63  88 SW5       29.91S

$$

INZ033-034-041-042-049-050-058-059-190900-
EAST CENTRAL INDIANA

CITY           SKY/WX    TMP DP  RH WIND       PRES   REMARKS
MUNCIE         CLOUDY    72  62  71 S3        29.89F
RICHMOND +     CLOUDY    63  63 100 SW6       29.94F

$$

INZ060-061-067>069-081>083-085>088-190900-
SOUTHWEST INDIANA

CITY           SKY/WX    TMP DP  RH WIND       PRES   REMARKS
EVANSVILLE     PTCLDY    72  66  81 CALM      29.92S
HUNTINGBURG +  CLOUDY    69  66  90 SE3       29.93F
WASHINGTON +   CLOUDY    70  67  91 MISG      29.91S

$$

INZ062-063-066-070>080-084-089>092-190900-
SOUTH CENTRAL AND SOUTHEAST INDIANA

CITY           SKY/WX    TMP DP  RH WIND       PRES   REMARKS
BEDFORD +      CLOUDY    68  63  83 CALM      29.92F
BLOOMINGTON    CLOUDY    69  63  81 CALM      29.92F
MADISON *+     PTCLDY    68  64  88 CALM      29.95F
NORTH VERNON + CLOUDY    64  64 100 CALM      29.93F
SEYMOUR +      CLOUDY    68  66  94 S3        29.91F

$$





USA.gov is the U.S. government's official web portal to all federal, state and local government web resources and services.